TimeCST,TemperatureF,Dew PointF,Humidity,Sea Level PressureIn,VisibilityMPH,Wind Direction,Wind SpeedMPH,Gust SpeedMPH,PrecipitationIn,Events,Conditions,WindDirDegrees,DateUTC
12:56 AM,28.0,18.0,66,30.13,-9999.0,NE,10.4,21.9,N/A,,Unknown,50,2013-02-28 06:56:00
1:56 AM,28.0,18.0,66,30.12,-9999.0,North,13.8,20.7,N/A,,Unknown,350,2013-02-28 07:56:00
2:56 AM,27.0,18.0,69,30.14,-9999.0,Variable,4.6,-,N/A,,Unknown,0,2013-02-28 08:56:00
3:56 AM,26.1,17.1,69,30.17,-9999.0,NNE,9.2,18.4,N/A,,Unknown,30,2013-02-28 09:56:00
4:56 AM,26.1,16.0,66,30.18,-9999.0,NE,12.7,21.9,N/A,,Unknown,50,2013-02-28 10:56:00
5:56 AM,25.0,15.1,66,30.21,-9999.0,NNE,4.6,18.4,N/A,,Unknown,30,2013-02-28 11:56:00
6:56 AM,25.0,15.1,66,30.23,-9999.0,Variable,5.8,-,N/A,,Unknown,0,2013-02-28 12:56:00
7:56 AM,25.0,14.0,63,30.24,-9999.0,North,9.2,20.7,N/A,,Unknown,10,2013-02-28 13:56:00
8:56 AM,27.0,12.9,56,30.25,-9999.0,North,12.7,19.6,N/A,,Unknown,10,2013-02-28 14:56:00
9:56 AM,28.0,12.0,51,30.25,-9999.0,North,10.4,20.7,N/A,,Unknown,10,2013-02-28 15:56:00
10:56 AM,30.0,12.9,49,30.26,-9999.0,Variable,4.6,-,N/A,,Unknown,0,2013-02-28 16:56:00
11:56 AM,30.0,12.9,49,30.27,-9999.0,East,13.8,19.6,N/A,,Unknown,80,2013-02-28 17:56:00
12:09 PM,30.2,12.2,47,30.23,-9999.0,East,11.5,-,N/A,,Unknown,80,2013-02-28 18:09:00
12:56 PM,30.0,15.1,54,30.27,-9999.0,East,9.2,17.3,N/A,,Unknown,100,2013-02-28 18:56:00
1:56 PM,30.0,17.1,59,30.27,-9999.0,ESE,10.4,-,N/A,,Unknown,110,2013-02-28 19:56:00
2:56 PM,30.0,19.0,64,30.28,-9999.0,East,9.2,-,N/A,,Unknown,100,2013-02-28 20:56:00
3:56 PM,32.0,10.9,42,30.29,-9999.0,NNE,9.2,-,N/A,,Unknown,30,2013-02-28 21:56:00
4:56 PM,30.0,9.0,41,30.30,-9999.0,NNE,9.2,-,N/A,,Unknown,30,2013-02-28 22:56:00
5:56 PM,28.0,7.0,41,30.33,-9999.0,NNE,8.1,-,N/A,,Unknown,20,2013-02-28 23:56:00
6:56 PM,26.1,5.0,41,30.34,-9999.0,NNE,8.1,16.1,N/A,,Unknown,20,2013-03-01 00:56:00
7:56 PM,24.1,3.9,42,30.35,-9999.0,NNE,8.1,20.7,N/A,,Unknown,20,2013-03-01 01:56:00
8:56 PM,21.9,1.9,42,30.36,-9999.0,NNE,6.9,24.2,N/A,,Unknown,20,2013-03-01 02:56:00
9:56 PM,21.0,1.0,42,30.37,-9999.0,NNE,5.8,19.6,N/A,,Unknown,20,2013-03-01 03:56:00
10:56 PM,19.9,1.0,44,30.39,-9999.0,NNE,9.2,-,N/A,,Unknown,30,2013-03-01 04:56:00
11:56 PM,18.0,-0.0,45,30.39,-9999.0,Variable,4.6,-,N/A,,Unknown,0,2013-03-01 05:56:00